Location: Arpaise
(41.0333°N, 14.7333°E)
Time: 08:07:23
(UTC+00:00)

Cosmos 2322 Rocket - Pass Details

Date: 05 July 2020
Orbit: 832 x 851 km, 71.0° (Epoch: 05 August)

Event Time Altitude Azimuth Distance (km) Brightness Sun altitude
Rises 19:52:45 0° 224° (SW) 3,365 5.3 -12.1°
Reaches altitude 10° 19:55:20 10° 232° (SW) 2,435 4.7 -12.5°
Maximum altitude 20:00:32 39° 301° (WNW) 1,225 3.7 -13.2°
Drops below altitude 10° 20:05:47 10° 10° (N) 2,452 5.1 -13.8°
Sets 20:08:24 0° 18° (NNE) 3,392 5.8 -14.2°
